Погода в Дамкуле

Узбекистан     40°18′48″N   71°48′53″E
темп.,
°C
ветер,
м/с
пор.,
м/с
влажн.,
%
обл.,
%
осадки,
мм/ч
давл.,
гПа
погр.,
м
27 февраля, сб
сб2723:00−3юв01430 0.0 103247
02:00−4ююз22485 0.0 103053
05:00−4ююз114942 0.0 103122
08:00−3ссв1145100 0.0 1030155
11:00−1с1138100 0.0 1028784
14:00+1сз0133100 0.0 1028836
17:00+1всв2233100 0.1 1031536
20:00−1в224970 0.1 103628
28 февраля, вс
вс2823:00−2юз115434 0.1 103721
02:00−3з11550 0.0 103522
05:00−3ююз11560 0.0 103421
08:00−1ююз11450 0.0 103269
11:00+2ссз01370 0.0 1026575
14:00+4в11320 0.0 1023807
17:00+5вюв01360 0.0 1023529
20:00+2в11490 0.0 102722
1 марта, пн
пн123:00+1юв22460 0.0 102722
02:000ююв11480 0.0 102722
05:00−1зсз11491 0.0 102622
08:00+2с114342 0.0 102722
11:00+6с113136 0.0 1023399
14:00+9ссв112748 0.0 1021653
17:00+9с013024 0.0 1022479
20:00+4вюв01430 0.0 102622
2 марта, вт
вт223:00+3вюв11450 0.0 102822
02:00+3вюв114533 0.0 102822
05:00+3в014667 0.0 102722
08:00+4ссз1146100 0.0 102722
11:00+9ссв113199 0.0 1023322
14:00+11с1127100 0.0 1021675
17:00+11с1031100 0.0 1021439
20:00+7вюв1241100 0.0 102322
3 марта, ср
ср323:00+6св0143100 0.0 102322
02:00+5юз0144100 0.0 102322
05:00+4з1145100 0.0 102222
08:00+6з0045100 0.0 102222
11:00+10ссз223296 0.0 1019732
14:00+11сз113081 0.0 10171171
17:00+11з223190 0.0 10171174
20:00+9ююз234197 0.0 102027